sat.trackr.live / text

‹ back to catalog

STARLINK-31606

NORAD 59571 · 2024-076H

PAYLOAD ACTIVE UNKNOWN

§ Identity

Operator
Country
US
Launch date
2024-04-23
Launch site
AFETR
Launch vehicle
Mass (kg)
RCS (m²)

Purposes: comms

External: N2YO · Heavens-Above · Gunter

§ Orbital elements

Epoch: 2026-09-21T22:00:03.000096Z

Period
94.27 min
Inclination
43.0021°
Eccentricity
0.0001635
Mean motion
15.27599967 rev/d
Perigee alt
481.9 km
Apogee alt
484.1 km
Semi-major
6,861.1 km
B*
-1.0964e-3
RAAN
340.4065°
Arg perigee
273.8846°
Mean anomaly
235.6474°
Rev number
581

§ Raw data

STARLINK-316061 59571U 24076H   26264.91670139 -.00030329  00000+0 -10964-2 0  99922 59571  43.0021 340.4065 0001635 273.8846 235.6474 15.27599967  5819

JSON: /api/v1/satellites/59571 · /tle

For live sub-satellite position, see the globe view (requires WebGL).

§ Visibility from observer

Set your observer location to see the next 7 days of passes ≥ 10°. The values pass through the URL so the page stays shareable.

No JS? Fill the form by hand. The geolocation button needs JavaScript.